Terug naar catalogus

CZ-2C R/B

ActiefPO
NORAD 54039·ROCKET BODY·🇨🇳 China

Gelanceerd Oct 12, 2022 vanaf Taiyuan Satellite Launch Center

Loading…

Volgende Passages (komende 24 uur)

TLE

VersSource: Space-Track

Epoch: Sep 14, 2026, 23:27 UTC

1 54039U 22132E   26257.97764319  .00114637  00000-0  49763-3 0  9993
2 54039  97.2873 269.8142 0012865  99.1137 261.1589 15.84405580220100

Volg CZ-2C R/B in realtime met AllMySat

Download on the App Store